Tracking 35280 objects as of 7-Sep-2026
HD Live streaming from Space Station
objects crossing your sky now

STARLINK-30261

Track STARLINK-30261 now!
10-day predictions
STARLINK-30261 is classified as:


NORAD ID: 57523
Int'l Code: 2023-115C
Launch date: August 8, 2023
Source: United States (US)
Launch site: AIR FORCE WESTERN TEST RANGE (AFWTR)
Your satellite tracking list
Your tracking list is empty




NASA's NSSDC Master Catalog

Two Line Element Set (TLE):
1 57523U 23115C   26249.51575632  .00002236  00000-0  90809-4 0  9994
2 57523  43.0039  60.6111 0001551 267.5777  92.4898 15.27567494170009
Source of the keplerian elements: AFSPC